Vorticity
nan nan nan nan nan nan nan nan nan nan nan nan nan nan nan nan nan nan nan nan nan nan nan nan nan nan nan nan nan nan nan nan
nan 5 11 15 15 8 7 10 6 5 5 6 7 8 7 8 9 9 7 7 8 8 9 7 9 10 9 8 6 8 7 nan
nan 7 9 6 7 8 10 8 8 7 9 8 9 8 8 8 6 7 9 8 9 7 9 8 10 10 8 8 10 10 9 nan
nan 8 9 6 7 8 8 9 8 8 8 8 8 7 8 8 8 7 8 8 7 10 8 7 7 7 7 7 8 8 9 nan
nan 9 7 7 7 8 8 9 9 8 6 8 5 5 7 7 8 10 10 9 6 6 6 6 6 7 7 7 9 8 8 nan
nan 9 8 7 8 8 8 9 8 7 6 5 4 7 8 11 10 9 8 8 8 7 6 7 7 8 8 8 10 8 7 nan
nan 8 8 8 9 10 9 9 8 7 8 8 6 9 9 8 9 7 7 8 9 9 8 8 8 9 10 8 6 7 8 nan
nan 7 7 8 9 8 9 9 8 7 9 9 11 6 8 10 8 7 8 7 9 11 8 8 8 10 8 9 9 9 9 nan
nan 8 8 9 8 7 8 9 10 8 7 8 10 7 5 9 9 10 9 11 13 9 8 9 9 9 7 7 7 11 9 nan
nan 7 8 9 8 7 7 8 8 8 7 8 8 8 8 9 8 8 7 11 12 11 9 8 9 8 9 7 7 9 9 nan
nan 7 8 8 8 7 8 10 9 8 8 8 8 9 8 9 10 7 8 8 8 9 8 9 9 7 8 7 8 8 8 nan
nan 6 8 8 9 7 7 9 8 9 8 9 9 10 9 9 7 8 11 9 10 8 9 8 8 9 8 8 7 10 10 nan
nan 7 7 7 8 6 6 7 7 8 9 9 9 9 10 9 9 9 11 8 8 10 9 9 9 10 10 9 8 10 10 nan
nan 8 7 8 6 8 9 7 8 9 8 9 10 8 9 9 10 11 8 8 10 9 8 9 10 10 10 10 10 11 10 nan
nan 7 8 9 9 8 8 10 12 10 9 10 9 11 10 12 11 10 8 10 10 12 11 9 9 10 13 13 12 14 10 nan
nan 7 8 8 7 10 10 9 10 9 11 12 12 11 9 10 10 9 9 10 9 10 12 13 16 13 10 17 16 14 13 nan
nan 8 8 10 13 9 9 10 9 10 12 10 10 10 10 9 8 9 9 9 10 9 9 12 15 13 10 14 17 14 11 nan
nan 9 13 13 12 13 11 11 10 11 13 12 10 9 11 10 9 8 9 10 11 9 9 10 10 8 10 10 16 15 11 nan
nan nan nan nan nan nan nan nan nan nan nan nan nan nan nan nan nan nan nan nan nan nan nan nan nan nan nan nan nan nan nan nan
CAPE
2 369 1010 1269 365 2854 2551 1813 1 1 0 0 1 1 1 0 0 0 0 0 0 0 0 0 0 0 11 4 6 17 29 0
115 229 1268 2452 2714 2344 1450 0 1 0 0 0 0 1 2 0 0 0 0 0 0 0 0 0 0 2 2 4 32 12 0 0
17 80 301 569 394 378 8 2 1 1 0 1 0 0 1 0 0 0 0 0 0 0 0 0 0 0 0 0 6 22 37 0
19 41 84 152 25 3 2 2 1 1 0 0 0 0 0 0 0 0 0 0 0 0 0 0 0 0 0 0 0 0 0 12
17 48 12 1 3 2 1 0 1 1 0 0 17 8 0 0 0 0 0 0 0 0 0 0 0 0 0 0 0 0 0 0
98 89 30 2 0 2 2 0 0 11 99 267 358 311 0 0 0 0 0 0 0 0 0 0 0 0 0 0 0 0 0 0
88 147 42 7 0 3 2 2 1 91 391 568 597 409 200 62 5 0 0 0 0 0 0 0 0 0 0 0 0 0 0 0
104 201 83 70 55 46 61 145 204 485 574 524 554 628 208 194 90 11 0 0 0 0 0 0 0 0 0 0 0 0 0 0
78 230 270 229 218 213 288 378 496 657 547 527 515 385 175 126 27 4 1 2 5 0 0 0 0 0 0 0 0 0 0 0
24 112 335 391 371 372 495 294 166 212 331 366 287 384 279 102 140 46 39 1 18 5 0 0 0 0 0 0 0 0 0 0
0 0 92 226 313 327 467 190 6 30 144 241 284 345 300 196 162 157 157 115 84 28 51 43 14 0 0 0 0 0 0 0
0 0 0 4 25 39 201 148 75 52 142 153 166 184 172 179 204 196 180 180 143 111 71 91 42 28 7 2 0 1 2 0
0 0 0 0 0 0 35 99 50 15 49 133 239 204 179 135 146 143 153 131 87 57 41 29 30 36 32 20 0 0 5 1
0 0 0 0 0 0 0 6 11 86 75 253 177 166 150 114 113 72 50 60 40 25 17 18 18 16 13 22 16 10 4 0
0 0 0 0 0 0 0 0 0 0 0 83 143 130 121 86 35 3 0 0 0 0 0 0 7 6 1 1 0 4 0 0
0 0 0 0 0 0 0 0 0 0 0 15 88 110 27 2 0 0 0 0 0 0 0 0 0 0 0 0 2 0 0 0
0 0 0 0 0 0 0 0 0 0 0 18 33 2 0 0 0 0 0 0 0 0 0 0 0 0 0 0 0 0 0 0
0 0 0 0 0 0 0 0 0 0 0 0 0 0 0 0 0 0 0 0 0 0 0 0 0 0 0 0 0 0 0 0
0 0 0 0 0 0 0 0 0 0 0 0 0 0 0 0 0 0 0 0 0 0 0 0 0 0 0 0 0 0 0 0